Change the Weather History Date:

Sunday, October 19, 2014

  Actual Average (EGUB) Record (EGUB)
Temperature  
Mean Temperature 60 °F -  
Max Temperature 65 °F 56 °F 69 °F (1997)
Min Temperature 55 °F 43 °F 26 °F (2002)
Degree Days  
Heating Degree Days 5    
Growing Degree Days 10 (Base 50)    
Moisture  
Dew Point 55 °F    
Average Humidity 81    
Maximum Humidity 94    
Minimum Humidity 51    
Precipitation  
Precipitation 0.00 in - - ()
Sea Level Pressure  
Sea Level Pressure 29.93 in    
Wind  
Wind Speed 14 mph ()    
Max Wind Speed 23 mph    
Max Gust Speed -    
Visibility 8.8 miles    
Events Rain    
Averages and records for this station are not official NWS values.
T = Trace of Precipitation, MM = Missing Value Source: Averaged Metar Reports

Daily Weather History Graph

Daily Weather History Graph

Search for Another Location

Airport or City:

Trip Planner

Search our weather history database for the weather conditions in past years. The results will help you decide how hot, cold, wet, or windy it might be!

Date:

Astronomy

Oct. 19, 2014 Rise Set
Actual Time 7:33 AM BST 6:02 PM BST
Civil Twilight 7:00 AM BST 6:36 PM BST
Nautical Twilight 6:21 AM BST 7:14 PM BST
Astronomical Twilight 5:43 AM BST 7:53 PM BST
Moon 2:45 AM BST (10/19) 4:11 PM BST (10/19)
Length of Visible Light 11h 36m
Length of Day
10h 29m
Waning Crescent, 18% of the Moon is Illuminated
Oct 19
Waning Crescent
Oct 23
New
Oct 31
First Quarter
Nov 6
Full
Nov 14
Last Quarter

Hourly Weather History & Observations

Time (BST) Temp. Dew Point Humidity Pressure Visibility Wind Dir Wind Speed Gust Speed Precip Events Conditions
12:00 AM 62 °F 58 °F 84% 29.91 in 16 mi SSW 12.7 mph - -   Partly Cloudy
12:50 AM 60.8 °F 59.0 °F 94% 29.89 in 6.2 mi SSW 15.0 mph - N/A   Mostly Cloudy
1:00 AM 62 °F 59 °F 86% 29.91 in 16 mi SSW 15.0 mph - - Rain Light Rain
1:50 AM 62.6 °F 59.0 °F 88% 29.89 in 6.2 mi SSW 11.5 mph - N/A   Mostly Cloudy
2:00 AM 62 °F 60 °F 90% 29.89 in 12 mi SSW 11.5 mph - -   Overcast
2:50 AM 62.6 °F 59.0 °F 88% 29.86 in 6.2 mi South 15.0 mph - N/A   Overcast
3:00 AM 62 °F 60 °F 90% 29.87 in 12 mi South 15.0 mph - -   Overcast
3:50 AM 62.6 °F 59.0 °F 88% 29.86 in 5.0 mi South 16.1 mph - N/A   Light Drizzle
4:00 AM 62 °F 60 °F 90% 29.85 in 5 mi South 16.1 mph - - Rain Light Drizzle
4:50 AM 60.8 °F 59.0 °F 94% 29.86 in 5.0 mi SW 17.3 mph - N/A Rain Rain
5:00 AM 61 °F 59 °F 91% 29.86 in 5 mi SW 17.3 mph - - Rain Rain
5:50 AM 60.8 °F 59.0 °F 94% 29.86 in 6.2 mi SW 16.1 mph - N/A Rain Light Rain
6:00 AM 60 °F 58 °F 92% 29.87 in 7 mi SW 16.1 mph - - Rain Light Rain
6:50 AM 59.0 °F 57.2 °F 94% 29.86 in 6.2 mi SSW 12.7 mph - N/A   Mostly Cloudy
7:00 AM 59 °F 57 °F 89% 29.88 in 22 mi SSW 12.7 mph - - Rain Light Rain
7:50 AM 59.0 °F 55.4 °F 88% 29.89 in 6.2 mi SW 11.5 mph - N/A   Overcast
8:00 AM 58 °F 56 °F 90% 29.90 in 12 mi SW 11.5 mph - -   Overcast
8:50 AM 59.0 °F 55.4 °F 88% 29.92 in 6.2 mi SSW 11.5 mph - N/A   Mostly Cloudy
9:00 AM 59 °F 56 °F 87% 29.92 in 11 mi SSW 11.5 mph - -   Mostly Cloudy
9:50 AM 59.0 °F 57.2 °F 94% 29.92 in 6.2 mi SW 15.0 mph - N/A   Scattered Clouds
10:00 AM 60 °F 56 °F 83% 29.93 in 11 mi SW 15.0 mph - -   Mostly Cloudy
10:50 AM 60.8 °F 55.4 °F 82% 29.92 in 6.2 mi SSW 19.6 mph - N/A   Mostly Cloudy
11:00 AM 61 °F 56 °F 79% 29.94 in 11 mi SSW 19.6 mph - -   Mostly Cloudy
11:50 AM 62.6 °F 53.6 °F 72% 29.95 in 6.2 mi SW 19.6 mph - N/A   Scattered Clouds
12:00 PM 63 °F 54 °F 66% 29.95 in 12 mi SW 19.6 mph - -   Mostly Cloudy
12:50 PM 62.6 °F 53.6 °F 72% 29.95 in 6.2 mi SW 18.4 mph - N/A   Mostly Cloudy
1:00 PM 63 °F 53 °F 60% 29.95 in 12 mi SW 18.4 mph - -   Mostly Cloudy
1:50 PM 64.4 °F 51.8 °F 64% 29.95 in 6.2 mi SW 23.0 mph - N/A   Scattered Clouds
2:00 PM 65 °F 51 °F 51% 29.94 in 16 mi SW 23.0 mph - -   Partly Cloudy
2:50 PM 64.4 °F 50.0 °F 59% 29.92 in 6.2 mi SW 21.9 mph - N/A   Mostly Cloudy
3:00 PM 64 °F 50 °F 51% 29.94 in 16 mi SW 21.9 mph - -   Mostly Cloudy
3:50 PM 62.6 °F 51.8 °F 68% 29.92 in 6.2 mi SSW 23.0 mph - N/A   Mostly Cloudy
4:00 PM 63 °F 51 °F 55% 29.94 in 12 mi SSW 23.0 mph - -   Mostly Cloudy
4:50 PM 62.6 °F 51.8 °F 68% 29.92 in 6.2 mi SW 18.4 mph - N/A   Scattered Clouds
5:00 PM 62 °F 52 °F 60% 29.94 in 12 mi SW 18.4 mph - -   Partly Cloudy
5:50 PM 59.0 °F 51.8 °F 77% 29.95 in 6.2 mi SW 11.5 mph - N/A   Scattered Clouds
6:00 PM 59 °F 52 °F 72% 29.96 in 11 mi SW 11.5 mph - -   Scattered Clouds
6:50 PM 57.2 °F 53.6 °F 88% 29.98 in 6.2 mi SW 11.5 mph - N/A   Scattered Clouds
7:00 PM 57 °F 53 °F 81% 29.98 in 11 mi SW 11.5 mph - -   Mostly Cloudy
7:50 PM 57.2 °F 53.6 °F 88% 29.98 in 6.2 mi SSW 13.8 mph - N/A   Scattered Clouds
8:00 PM 57 °F 53 °F 81% 29.99 in 12 mi SSW 13.8 mph - -   Partly Cloudy
8:50 PM 55.4 °F 53.6 °F 94% 29.98 in 6.2 mi SSW 15.0 mph - N/A   Partly Cloudy
9:00 PM 56 °F 53 °F 85% 29.99 in 12 mi SSW 15.0 mph - -   Scattered Clouds
9:50 PM 55.4 °F 51.8 °F 88% 30.01 in 6.2 mi SW 13.8 mph - N/A   Partly Cloudy
10:00 PM 56 °F 53 °F 84% 30.03 in 11 mi SW 13.8 mph - -   Scattered Clouds
10:50 PM 55.4 °F 53.6 °F 94% 30.01 in 6.2 mi SW 13.8 mph - N/A   Mostly Cloudy
11:00 PM 56 °F 53 °F 85% 30.03 in 11 mi SW 13.8 mph - -   Scattered Clouds
11:50 PM 55.4 °F 51.8 °F 88% 30.01 in 6.2 mi SW 17.3 mph - N/A   Scattered Clouds